Temperature
23 20 20 20 21 21 22 21 21 21 22 21 20 19 19 20 20 19 19 19 19 19 20 19 19 19 18 18 18 17 17 17 16 16 16 16 16 16 15 15 15 15 15 15
20 20 22 22 23 22 22 21 21 21 22 21 20 19 20 20 20 20 19 19 19 19 19 19 19 18 18 18 17 17 17 16 16 16 16 16 15 15 15 15 15 15 15 15
21 22 23 23 23 22 22 21 21 22 22 21 20 19 19 19 20 20 20 20 20 20 19 19 19 18 18 18 18 17 17 16 16 16 16 15 15 15 15 15 15 15 15 15
21 23 24 23 23 22 21 22 23 22 20 19 20 18 19 19 19 19 19 19 20 19 19 19 19 18 18 18 18 17 17 16 16 16 16 16 15 15 15 15 15 15 15 14
21 23 23 23 23 23 22 23 22 22 20 19 19 18 18 18 18 18 19 20 20 19 19 19 19 19 18 18 17 17 17 16 16 16 16 16 15 15 15 15 15 15 14 14
22 23 23 23 23 23 23 21 20 18 18 18 19 18 18 17 18 18 19 19 20 19 19 19 19 18 18 18 17 17 17 16 16 16 16 16 15 15 15 15 15 15 15 14
21 22 23 23 23 22 21 18 18 18 17 18 19 19 18 18 19 19 19 19 20 19 19 19 19 18 18 18 17 17 17 16 16 16 16 16 15 15 15 15 15 15 15 14
20 20 22 23 22 21 21 19 18 18 18 18 19 19 18 20 20 21 21 20 20 19 19 19 19 19 18 18 17 17 17 16 16 16 16 16 15 15 15 15 15 15 15 14
19 20 22 23 23 22 21 19 18 17 18 18 18 19 20 20 20 19 20 19 19 19 19 19 19 19 18 18 17 17 17 16 16 16 16 15 15 15 15 15 15 15 14 14
20 20 21 22 23 22 21 20 17 18 18 18 18 18 18 19 19 19 18 18 19 19 19 19 19 18 18 18 17 17 17 16 16 16 16 16 15 15 15 15 15 15 14 14
20 19 20 20 21 21 21 20 18 16 16 17 17 18 19 18 18 18 18 19 19 19 19 19 19 18 18 18 17 17 17 16 16 16 16 16 15 15 15 15 15 14 14 14
19 17 18 19 20 21 21 20 18 18 17 16 16 17 19 18 18 19 18 19 19 19 19 19 18 18 18 17 17 17 17 16 16 16 16 15 15 15 15 15 14 14 14 14
19 17 17 18 19 20 20 20 19 17 16 16 16 18 18 18 18 19 19 19 19 19 19 18 18 18 18 17 17 17 16 16 16 16 15 15 15 15 15 15 14 14 14 14
18 17 17 18 18 19 19 20 20 18 16 17 17 18 18 18 17 18 18 19 19 19 18 18 18 18 17 17 17 16 16 16 16 15 15 15 15 15 15 14 14 14 14 14
17 17 18 18 19 19 19 20 20 19 18 17 18 17 18 17 17 18 18 18 18 18 18 18 18 17 17 17 16 16 16 16 15 15 15 15 15 14 14 14 14 14 14 14
16 17 18 18 19 19 19 19 19 19 19 18 18 18 17 18 18 18 18 18 18 18 17 17 17 17 17 17 16 16 16 16 15 15 15 15 15 14 14 14 14 14 14 14
15 16 17 16 18 18 18 18 19 19 19 18 18 17 17 16 17 17 18 18 18 18 17 17 17 17 17 16 16 16 16 15 15 15 15 15 15 14 14 14 14 14 14 14
15 15 14 15 17 17 17 18 19 19 18 18 18 17 17 17 18 18 18 18 18 17 17 17 17 17 16 16 16 16 15 15 15 15 14 14 14 14 14 14 14 13 13 13
15 15 14 14 15 16 18 19 19 18 18 18 17 17 17 18 17 17 17 18 18 17 17 17 17 16 16 16 15 15 15 15 15 14 14 14 14 14 14 13 13 13 13 13
15 14 14 14 16 16 17 19 19 18 17 18 17 17 17 17 14 15 17 17 17 17 17 17 16 16 16 15 15 15 15 14 14 14 14 14 14 13 13 13 13 13 13 13
15 14 14 14 15 15 16 18 19 17 17 18 18 18 17 16 16 17 17 17 17 17 16 16 16 16 15 15 15 14 14 14 14 14 14 13 13 13 13 13 13 13 12 13
14 14 14 13 14 15 17 18 17 17 18 18 18 18 17 17 17 17 17 16 16 16 16 16 15 15 15 14 14 14 14 13 13 13 13 13 13 13 12 12 12 12 12 12
14 14 13 14 15 16 18 18 19 19 18 18 18 18 18 17 17 16 16 16 16 15 15 15 15 14 14 14 14 14 13 13 13 13 13 13 13 12 12 12 12 12 12 12
13 14 13 13 14 16 17 18 18 18 18 18 18 18 17 17 17 16 16 15 15 15 15 14 14 14 14 13 13 13 13 13 13 13 13 12 12 12 12 12 12 12 12 11
14 13 13 13 14 16 17 17 18 18 18 18 17 17 17 17 16 16 15 15 15 15 14 14 14 13 13 13 13 13 12 12 12 12 12 12 12 12 12 12 11 11 11 11
13 13 13 13 15 14 16 17 17 17 17 17 17 17 16 16 16 15 15 15 14 14 14 14 13 13 13 13 13 12 12 12 12 12 12 12 11 11 11 11 11 11 10 10
Wind_Speed
1 3 3 7 7 6 4 3 3 5 5 5 6 7 7 8 8 8 8 8 8 7 6 6 7 8 7 6 6 6 5 4 4 3 3 2 1 1 2 3 5 5 5 6
3 3 9 7 4 3 3 2 3 3 2 4 4 6 6 8 10 10 11 10 9 7 5 5 6 7 7 6 6 6 6 5 4 3 3 2 2 1 1 2 3 4 5 5
5 7 6 4 2 1 2 3 4 3 1 1 1 4 4 4 5 5 7 9 9 10 10 8 7 6 7 7 7 7 6 5 4 4 3 3 3 3 2 2 1 1 2 4
3 5 3 2 2 2 3 4 3 1 1 3 2 3 6 4 3 5 6 7 8 8 9 9 8 7 8 7 7 7 6 5 4 4 5 5 3 2 2 2 1 1 1 3
3 2 2 2 3 3 5 3 1 1 1 2 1 2 6 1 3 6 7 8 8 8 10 10 10 9 8 7 7 6 6 5 4 4 5 5 3 2 1 1 1 0 0 1
4 3 3 4 3 1 1 4 6 5 4 2 4 4 5 3 6 6 6 7 8 9 9 8 8 8 6 6 6 6 6 4 4 5 5 6 5 4 3 2 2 1 1 0
4 4 2 2 1 3 5 6 4 5 3 5 3 2 6 6 6 8 9 8 8 9 9 9 8 8 7 7 6 6 6 4 4 4 5 5 5 5 5 4 4 2 1 1
1 4 4 3 5 4 2 7 5 3 4 5 3 2 5 4 3 5 7 8 8 8 9 10 10 10 8 8 7 7 6 5 4 4 4 4 4 4 4 4 4 4 3 3
4 5 4 3 3 6 3 3 6 5 2 2 3 2 4 2 2 3 5 6 8 9 9 10 9 9 8 8 8 8 8 6 5 5 4 4 4 4 4 4 4 3 3 3
7 3 4 2 2 1 5 5 5 3 1 2 3 3 4 4 3 3 5 7 7 8 8 8 8 8 8 7 6 6 7 7 5 5 4 4 4 4 4 3 4 4 4 3
4 4 2 1 3 4 1 1 3 3 4 4 3 6 5 8 6 6 6 7 8 9 9 9 8 7 7 6 6 6 6 5 5 5 4 4 4 4 4 4 5 5 4 4
3 5 2 5 6 4 5 5 5 3 4 4 3 6 4 6 5 5 4 4 5 7 7 7 7 6 6 6 6 6 6 5 4 4 4 3 3 3 3 3 4 4 4 4
4 6 2 5 5 3 1 3 4 5 3 3 3 5 3 1 2 3 4 3 3 4 5 5 5 6 6 6 6 6 5 5 4 3 3 3 2 2 3 3 4 4 4 4
5 4 6 7 7 4 4 5 4 4 3 4 5 5 4 2 2 2 3 4 4 4 5 5 5 5 6 6 5 5 4 4 4 4 3 3 3 3 3 3 4 4 4 4
5 3 5 6 6 5 6 6 6 5 7 7 6 6 7 6 6 5 4 3 3 3 4 6 5 5 5 5 5 4 4 3 4 4 4 4 4 3 2 2 3 3 4 5
3 3 2 3 4 3 4 6 6 6 5 5 4 5 5 3 2 2 3 4 4 3 4 5 5 4 5 5 5 5 4 5 4 5 5 4 3 3 2 3 3 3 3 3
2 3 2 4 5 3 4 6 5 4 3 5 6 7 3 2 3 4 4 4 5 5 4 5 5 5 6 6 6 6 6 5 4 4 4 4 4 3 3 3 2 2 3 3
5 4 3 2 1 4 7 4 4 4 3 3 4 4 5 6 5 3 3 5 5 4 3 4 4 4 4 4 4 4 4 4 5 4 4 4 4 3 3 3 3 3 2 3
6 6 4 3 3 6 6 4 2 3 3 2 4 3 3 3 4 3 2 2 3 3 3 3 4 3 2 3 3 3 3 3 4 4 5 4 4 3 3 3 3 3 3 3
3 5 5 4 4 6 7 5 2 3 3 4 4 4 3 4 2 4 3 1 1 1 2 2 2 2 2 2 3 4 2 2 3 4 4 4 4 4 4 4 3 2 2 3
2 2 4 5 5 6 7 4 2 3 7 4 4 5 6 5 6 5 3 2 2 2 1 2 3 2 2 2 3 3 2 3 4 3 3 3 3 4 4 3 2 2 2 2
6 5 5 5 5 8 5 2 5 7 4 3 4 5 6 4 3 3 3 2 2 2 2 3 3 1 1 2 4 3 3 3 2 3 3 3 3 3 3 2 2 2 2 2
5 7 6 7 7 5 4 5 4 4 4 4 4 4 5 4 3 3 3 3 3 3 2 2 3 2 0 1 3 4 4 2 3 3 3 3 3 2 3 3 3 2 2 2
4 2 3 3 5 4 3 2 1 3 3 3 4 4 5 4 4 4 4 3 3 2 2 2 3 2 1 1 2 3 3 2 3 3 3 3 3 2 2 2 2 3 3 2
5 3 2 3 4 3 3 2 3 2 2 2 2 3 5 5 4 4 4 4 3 3 2 3 3 3 2 2 2 2 2 3 3 3 3 3 3 3 2 2 2 3 4 4
5 6 6 6 6 4 6 5 3 3 3 3 3 2 2 5 5 4 4 3 3 3 2 2 3 3 3 2 2 3 3 3 4 3 3 3 3 3 3 2 1 2 3 4
Wind_Direction
12 87 224 227 210 201 200 212 240 244 213 177 206 228 222 205 196 194 193 190 193 199 200 167 160 154 145 143 134 137 132 137 123 111 108 101 91 55 40 65 82 91 102 105
36 243 233 227 223 211 223 235 267 285 200 171 219 251 237 206 202 196 193 193 192 189 172 162 158 153 151 151 149 147 149 152 148 147 152 153 150 128 94 50 68 82 96 110
206 237 239 201 231 249 251 212 223 237 333 33 113 315 284 248 206 194 189 190 189 182 179 173 162 160 154 154 160 159 160 157 155 145 119 96 73 53 43 31 18 25 91 112
238 244 208 158 207 194 257 242 213 200 89 262 175 260 275 247 194 196 194 186 186 180 172 171 164 161 163 168 162 156 162 159 158 146 138 138 138 151 205 211 230 313 93 116
259 223 176 190 219 196 224 251 270 269 179 313 295 187 287 224 211 221 205 188 184 175 170 173 172 169 167 165 161 162 160 159 159 154 153 149 151 178 186 172 170 237 1 104
246 238 193 198 212 195 133 32 22 41 67 315 246 179 269 236 217 211 205 191 180 173 169 171 170 162 159 157 156 157 158 165 165 160 156 157 162 167 160 172 183 214 263 317
319 304 263 156 88 2 71 74 23 359 4 261 264 168 245 245 214 193 191 188 177 172 166 166 163 166 166 164 164 159 158 168 176 170 171 172 173 175 181 190 192 192 198 227
195 279 257 197 170 187 173 138 156 210 240 281 328 216 257 257 211 180 176 171 166 172 174 175 176 177 177 176 172 167 172 180 182 179 184 188 182 180 191 193 186 193 202 210
188 251 280 226 167 148 150 176 176 155 267 283 297 297 315 0 63 134 153 156 173 181 181 181 179 179 180 181 182 180 179 184 188 188 184 190 195 189 194 197 191 200 207 203
167 220 273 288 54 45 161 162 96 116 187 277 293 251 235 226 206 183 170 180 189 188 185 182 179 183 185 185 184 182 182 188 192 194 197 196 202 197 195 187 195 199 198 191
146 159 288 16 195 218 188 156 130 138 165 171 246 267 227 197 196 189 193 192 194 190 188 185 185 186 181 176 176 180 185 190 195 198 198 194 203 199 195 199 200 198 199 193
143 130 209 253 259 219 189 188 152 164 241 191 197 267 278 184 179 170 181 200 198 189 185 185 184 179 176 179 179 182 186 192 201 198 186 188 199 193 194 205 206 196 195 196
126 116 86 342 335 342 232 203 170 151 142 172 190 266 322 107 144 171 166 177 188 179 173 172 173 181 185 187 187 188 189 195 195 178 170 175 184 189 202 210 203 192 192 194
118 126 168 198 220 228 249 250 211 150 172 217 223 238 281 255 195 208 191 177 175 172 172 176 184 185 183 183 186 190 196 191 179 166 166 181 196 201 206 203 192 186 181 181
106 164 207 227 237 220 226 236 230 210 200 200 230 224 239 222 206 200 195 176 154 160 168 178 188 191 186 182 183 186 195 196 182 170 179 203 208 201 191 189 193 186 185 189
88 166 214 281 277 265 262 254 236 228 215 205 208 246 238 213 172 164 175 167 168 179 182 184 181 182 190 192 191 187 192 205 191 186 192 197 191 184 190 193 198 187 189 195
157 151 154 261 293 346 277 249 221 219 227 194 213 227 203 162 176 186 188 180 189 197 195 191 193 197 200 199 195 197 202 193 182 187 192 191 185 177 194 196 183 196 196 190
167 153 152 218 359 241 244 242 201 204 245 206 187 195 181 184 187 189 183 173 185 196 201 207 210 212 211 202 196 195 189 185 186 189 199 196 182 184 188 179 183 196 190 193
175 159 151 159 220 262 276 274 212 195 263 240 176 178 179 133 69 357 302 173 179 186 188 198 196 192 181 185 186 161 177 182 185 199 203 196 185 183 184 191 202 202 188 196
130 134 146 161 193 233 243 258 237 126 259 262 166 159 160 114 134 261 256 201 174 172 175 162 142 125 140 169 141 125 155 163 197 207 198 183 178 178 182 195 202 200 190 197
140 136 173 186 216 251 255 263 96 169 230 230 177 166 162 177 204 215 208 192 166 152 154 136 124 133 169 163 136 138 161 206 216 195 168 159 168 173 173 177 172 171 172 166
183 181 193 171 203 245 247 160 183 214 210 185 173 170 170 182 172 158 169 168 154 137 121 123 126 141 178 155 148 155 200 225 189 152 147 157 164 169 166 158 162 155 154 161
198 197 190 192 214 234 208 197 212 173 171 182 172 180 164 157 168 170 173 169 166 156 143 133 140 143 152 173 159 177 219 208 160 147 158 168 165 166 160 160 164 161 155 168
255 199 164 229 257 255 243 198 176 161 170 182 169 163 153 161 174 175 171 169 168 166 165 151 135 142 223 239 188 195 202 169 150 161 177 176 173 179 176 176 177 176 182 193
225 177 172 239 264 307 290 220 194 178 154 134 137 157 163 160 169 176 179 187 189 188 190 170 169 186 216 227 207 204 189 156 156 175 192 192 189 186 189 195 197 198 209 208
214 187 184 222 226 209 239 238 212 183 182 176 160 166 176 170 173 174 184 196 196 194 188 184 194 205 220 214 210 213 199 169 166 179 197 199 197 194 191 191 224 242 229 238
Height
1533 1537 1541 1538 1535 1536 1537 1541 1543 1537 1531 1534 1538 1537 1534 1534 1535 1536 1537 1538 1539 1540 1542 1543 1544 1545 1546 1547 1548 1548 1548 1549 1549 1549 1549 1549 1549 1549 1549 1549 1549 1549 1549 1549
1538 1539 1532 1529 1530 1532 1535 1541 1541 1535 1529 1533 1538 1536 1531 1531 1531 1532 1533 1535 1537 1539 1541 1542 1543 1544 1545 1546 1547 1548 1548 1548 1549 1549 1549 1549 1549 1549 1549 1549 1549 1549 1549 1549
1538 1533 1526 1528 1531 1534 1535 1538 1538 1537 1532 1532 1537 1541 1534 1531 1530 1532 1532 1533 1534 1536 1538 1540 1542 1543 1544 1545 1546 1547 1547 1548 1548 1548 1549 1549 1549 1549 1549 1549 1549 1549 1549 1549
1532 1527 1526 1529 1531 1532 1538 1530 1530 1532 1540 1547 1541 1556 1539 1532 1531 1530 1531 1531 1532 1534 1536 1538 1540 1542 1543 1544 1545 1546 1547 1547 1548 1548 1548 1548 1548 1548 1549 1549 1549 1549 1549 1548
1532 1527 1527 1530 1529 1528 1530 1526 1528 1531 1538 1545 1543 1551 1545 1533 1534 1531 1529 1529 1531 1533 1534 1536 1538 1540 1542 1543 1544 1545 1546 1546 1547 1547 1547 1547 1548 1548 1548 1548 1548 1548 1548 1548
1527 1524 1524 1525 1524 1524 1525 1529 1533 1539 1545 1556 1545 1550 1549 1537 1531 1527 1526 1527 1529 1531 1533 1535 1537 1539 1541 1542 1543 1544 1545 1545 1546 1546 1546 1546 1547 1547 1547 1547 1547 1547 1548 1548
1532 1526 1523 1522 1526 1527 1529 1545 1560 1561 1565 1559 1541 1545 1544 1528 1523 1522 1523 1525 1527 1530 1532 1534 1536 1538 1539 1540 1541 1542 1543 1544 1544 1545 1545 1545 1546 1546 1546 1546 1546 1546 1546 1547
1543 1542 1526 1522 1525 1531 1532 1542 1561 1568 1568 1558 1542 1545 1536 1522 1520 1520 1521 1524 1526 1528 1530 1532 1533 1535 1537 1539 1540 1541 1542 1542 1543 1543 1544 1544 1544 1544 1545 1545 1545 1545 1545 1546
1541 1540 1524 1521 1520 1524 1532 1538 1539 1552 1553 1557 1551 1540 1530 1523 1522 1521 1522 1524 1525 1526 1528 1530 1532 1534 1535 1537 1538 1539 1540 1541 1541 1542 1542 1542 1542 1543 1543 1543 1544 1544 1544 1544
1529 1537 1527 1522 1521 1522 1525 1531 1544 1551 1560 1564 1554 1547 1542 1529 1526 1523 1523 1523 1524 1525 1526 1528 1530 1532 1534 1535 1536 1537 1538 1539 1540 1540 1540 1540 1540 1541 1541 1541 1541 1542 1542 1543
1524 1534 1533 1528 1528 1530 1529 1532 1538 1548 1552 1562 1563 1551 1525 1524 1522 1522 1522 1521 1522 1523 1524 1526 1528 1530 1532 1533 1534 1535 1536 1537 1538 1538 1538 1539 1539 1539 1539 1539 1539 1540 1540 1541
1523 1533 1540 1532 1523 1520 1523 1528 1536 1549 1550 1551 1556 1548 1518 1519 1519 1519 1520 1521 1521 1522 1523 1525 1526 1528 1530 1531 1532 1533 1534 1535 1535 1536 1536 1537 1537 1537 1537 1537 1537 1538 1538 1538
1522 1533 1545 1543 1537 1526 1525 1524 1527 1536 1545 1551 1554 1544 1520 1519 1519 1519 1519 1519 1520 1521 1522 1523 1525 1526 1527 1529 1530 1531 1532 1533 1533 1534 1534 1535 1535 1535 1535 1535 1535 1535 1536 1536
1518 1530 1539 1544 1538 1530 1528 1524 1523 1532 1544 1545 1541 1534 1524 1521 1520 1519 1519 1518 1519 1519 1520 1522 1523 1524 1525 1526 1528 1528 1529 1530 1531 1531 1532 1532 1532 1533 1533 1533 1533 1533 1533 1534
1518 1529 1528 1527 1523 1523 1523 1522 1521 1525 1529 1535 1530 1528 1522 1519 1518 1517 1518 1518 1518 1518 1519 1520 1521 1521 1522 1523 1525 1526 1527 1527 1528 1529 1529 1530 1530 1531 1531 1531 1531 1531 1531 1532
1520 1525 1525 1526 1521 1521 1522 1519 1519 1520 1520 1522 1523 1523 1516 1515 1515 1515 1516 1516 1516 1517 1517 1517 1518 1519 1520 1520 1521 1522 1523 1524 1525 1526 1526 1527 1527 1528 1528 1528 1528 1528 1529 1529
1523 1526 1530 1534 1525 1522 1528 1519 1517 1517 1515 1516 1521 1518 1514 1515 1514 1514 1514 1514 1515 1515 1515 1515 1516 1516 1517 1517 1518 1519 1520 1521 1522 1522 1523 1523 1524 1525 1525 1525 1526 1526 1526 1526
1521 1526 1532 1534 1531 1537 1524 1510 1510 1512 1512 1510 1510 1510 1510 1511 1511 1512 1512 1512 1513 1513 1513 1513 1513 1514 1514 1515 1515 1516 1517 1517 1518 1519 1519 1520 1521 1522 1522 1522 1523 1523 1523 1524
1513 1521 1531 1536 1537 1530 1518 1509 1508 1511 1513 1508 1508 1508 1509 1509 1510 1511 1511 1511 1511 1511 1511 1511 1511 1511 1511 1512 1512 1513 1513 1514 1514 1515 1516 1517 1518 1519 1519 1519 1520 1520 1521 1521
1512 1516 1527 1533 1534 1533 1517 1505 1504 1508 1515 1506 1505 1506 1507 1508 1514 1512 1509 1509 1509 1509 1509 1509 1508 1508 1508 1509 1509 1509 1509 1510 1510 1511 1512 1513 1514 1515 1516 1516 1517 1518 1518 1518
1518 1521 1526 1529 1530 1522 1508 1503 1504 1517 1513 1504 1503 1503 1504 1505 1506 1506 1506 1507 1507 1506 1506 1506 1506 1506 1505 1506 1506 1506 1506 1507 1507 1508 1509 1510 1511 1512 1513 1513 1514 1514 1515 1515
1516 1521 1524 1526 1528 1522 1502 1502 1505 1504 1500 1500 1500 1501 1501 1502 1503 1503 1503 1504 1504 1504 1504 1504 1503 1503 1503 1503 1503 1503 1503 1504 1505 1505 1506 1507 1508 1509 1509 1510 1511 1511 1512 1512
1510 1509 1510 1512 1511 1500 1497 1498 1498 1498 1498 1498 1498 1499 1499 1500 1501 1501 1501 1501 1502 1502 1502 1502 1501 1501 1501 1500 1500 1500 1500 1501 1502 1502 1503 1504 1505 1506 1506 1507 1507 1508 1508 1509
1503 1501 1503 1505 1500 1497 1496 1495 1496 1497 1497 1497 1497 1497 1497 1498 1498 1498 1499 1499 1499 1500 1500 1499 1499 1498 1498 1498 1498 1498 1498 1499 1499 1499 1500 1501 1502 1502 1503 1504 1504 1504 1505 1505
1499 1499 1501 1502 1498 1496 1494 1494 1495 1495 1496 1495 1495 1495 1495 1495 1496 1496 1496 1497 1497 1497 1497 1497 1496 1496 1495 1495 1495 1495 1496 1496 1496 1497 1498 1498 1499 1499 1499 1500 1500 1500 1501 1501
1494 1495 1498 1498 1494 1494 1493 1492 1493 1493 1493 1493 1493 1493 1493 1493 1493 1493 1494 1494 1494 1495 1495 1494 1494 1493 1493 1492 1492 1492 1493 1493 1493 1494 1494 1495 1495 1495 1496 1496 1496 1496 1497 1497